Location: DARK SKY Beskydy - Park tmavé oblohy, www.darkskybeskydy.cz
(49.4926°N, 18.5016°E)
Time: 19:03:15
(UTC+02:00)

PCSat - Pass Details

Date: 08 August 2024
Orbit: 781 x 793 km, 67.1° (Epoch: 08 September)

Event Time Altitude Azimuth Distance (km) Brightness Sun altitude
Rises 23:51:08 0° 321° (NW) 3,299 13.9 -23.4°
Reaches altitude 10° 23:54:34 10° 343° (NNW) 2,369 13.1 -23.5°
Maximum altitude 23:57:50 16° 20° (NNE) 1,983 12.3 -23.6°
Drops below altitude 10° 00:01:07 10° 58° (ENE) 2,366 12.2 -23.8°
Sets 00:04:32 0° 80° (E) 3,293 12.8 -23.9°
